Hourly Data Report for February 19, 2005

TORONTO CITY
ONTARIO

43°40'00.000" N
79°24'00.000" W
112.50 m
6158355
71508
XTO

Download Data

Hourly Data (February 2005)
Hourly Data Report for February 19, 2005
TIME
LST
Temp Definition
°C
Dew Point Definition
°C
Rel Hum Definition
%
Precip. Amount Definition
mm

Wind Dir Definition
10's deg

Wind Spd Definition
km/h
Visibility Definition
km
Stn Press Definition
kPa
Hmdx Definition


Wind Chill Definition


Weather Definition


00:00 -10.1 -15.5 65   LegendMM LegendMM   100.99     LegendNANA
01:00 -10.2 -14.9 68   LegendMM LegendMM   101.00     LegendNANA
02:00 -9.5 -13.8 71   LegendMM LegendMM   100.99     LegendNANA
03:00 -9.0 -13.5 70   LegendMM LegendMM   100.95     LegendNANA
04:00 -8.8 -13.5 69   LegendMM LegendMM   100.91     LegendNANA
05:00 -8.6 -13.3 69   LegendMM LegendMM   100.87     LegendNANA
06:00 -8.7 -12.7 73   LegendMM LegendMM   100.86     LegendNANA
07:00 -8.6 -12.3 75   LegendMM LegendMM   100.86     LegendNANA
08:00 -8.0 -11.8 74   LegendMM LegendMM   100.91     LegendNANA
09:00 -6.4 -11.5 67   LegendMM LegendMM   100.95     LegendNANA
10:00 -5.2 -10.3 67   LegendMM LegendMM   100.92     LegendNANA
11:00 -3.9 -10.5 60   LegendMM LegendMM   100.90     LegendNANA
12:00 -3.3 -10.6 57   LegendMM LegendMM   100.88     LegendNANA
13:00 -2.2 -10.5 53   LegendMM LegendMM   100.79     LegendNANA
14:00 -1.7 -9.9 53   LegendMM LegendMM   100.76     LegendNANA
15:00 -1.8 -9.1 57   LegendMM LegendMM   100.78     LegendNANA
16:00 -2.0 -7.3 67   LegendMM LegendMM   100.83     LegendNANA
17:00 -2.8 -9.0 62   LegendMM LegendMM   100.92     LegendNANA
18:00 -3.1 -10.3 57   LegendMM LegendMM   101.00     LegendNANA
19:00 -3.7 -9.7 63   LegendMM LegendMM   101.09     LegendNANA
20:00 -4.3 -9.2 69   LegendMM LegendMM   101.19     LegendNANA
21:00 -4.3 -8.7 71   LegendMM LegendMM   101.30     LegendNANA
22:00 -4.8 -8.3 76   LegendMM LegendMM   101.36     LegendNANA
23:00 -5.3 -8.6 78   LegendMM LegendMM   101.42     LegendNANA

Notes on Data Quality.

Legend

  • E = Estimated
  • M = Missing
  • NA = Not Available*
  • [empty] = Indicates an unobserved value
Date modified: